Location: San Martino di Castrozza
(46.2667°N, 11.8000°E)
Time: 15:09:36
(UTC+00:00)

SL-08 R/B - Pass Details

Date: 23 April 2021
Orbit: 673 x 740 km, 98.5° (Epoch: 12 May)

Event Time Altitude Azimuth Distance (km) Brightness Sun altitude
Exits shadow 01:58:09 - 152° (SSE) 3,179 6.5 -20.3°
Rises 01:58:14 0° 152° (SSE) 3,143 6.5 -20.2°
Reaches altitude 10° 02:00:33 10° 148° (SSE) 2,218 5.8 -20.0°
Maximum altitude 02:05:18 56° 71° (ENE) 858 4.0 -19.4°
Drops below altitude 10° 02:10:00 10° 354° (N) 2,194 6.4 -18.8°
Sets 02:12:17 0° 350° (N) 3,106 7.1 -18.5°
